Welcome to the New NWS' Forecast!
Most changes are behind the scenes, but click here for differences you might notice.

Regional Weather Roundup (RWR)

Issued by Gray - Portland, ME (GYX)

                            
000
ASUS41 KGYX 152205
RWRGYX
WEATHER ROUNDUP FOR MAINE AND NEW HAMPSHIRE
NATIONAL WEATHER SERVICE GRAY ME
500 PM EST THU NOV 15 2018

MEZ002-005-006-010-012-015-018-020-021-024-026-027-029-152300-
MAINE
  
CITY           SKY/WX    TMP DP  RH WIND       PRES   REMARKS
PORTLAND       CLOUDY    29   7  39 CALM      30.47F                  
SANFORD        FAIR      27  14  58 CALM      30.45F                  
BAR HARBOR     FAIR      27   9  46 CALM      30.48F                  
WISCASSET      FAIR      27  12  53 CALM      30.48F                  
ROCKLAND       FAIR      28   9  44 CALM      30.47F                  
FRYEBURG       FAIR      26  11  52 CALM      30.42F                  
LEWISTONAUBURN FAIR      27   9  46 E5        30.45F                  
AUGUSTA        FAIR      27   4  37 CALM      30.45F                  
WATERVILLE     FAIR      25   6  44 MISG      30.43F                  
BANGOR         CLOUDY    25  12  58 CALM      30.47F                  
GREENVILLE       N/A     15   7  70 E3        30.35F                  
MILLINOCKET    FAIR      18  11  74 CALM      30.46F                  
HOULTON        FAIR      17  13  84 CALM      30.44F                  
PRESQUE ISLE   FAIR      15   7  70 CALM      30.44F                  
FRENCHVILLE    FAIR      21   5  50 SW6       30.38S                  
CARIBOU        FAIR      19   6  57 SW3       30.42F                  
$$

NHZ002-005-008-009-011-012-014-152300-
NEW HAMPSHIRE
  
CITY           SKY/WX    TMP DP  RH WIND       PRES   REMARKS
PORTSMOUTH     CLOUDY    29  14  55 CALM      30.43F                  
ROCHESTER      FAIR      27   8  44 CALM      30.43F                  
NASHUA         FAIR      29   6  38 E6        30.41F                  
MANCHESTER     CLOUDY    29   2  31 E5        30.40F                  
CONCORD        FAIR      27   4  37 E5        30.41F                  
LACONIA        FAIR      27  13  55 CALM      30.41F                  
PLYMOUTH       FAIR      26   8  47 CALM      30.40F                  
BERLIN         FAIR      19  14  81 CALM      30.35F                  
WHITEFIELD     FAIR      20  13  74 CALM      30.34F                  
JAFFREY        FAIR      26   7  44 CALM      30.33F                  
KEENE          FAIR      29   8  41 CALM      30.37F                  
LEBANON        FAIR      25  11  55 CALM      30.37F                  
MT WASHINGTON  CLOUDY    18  -4  38 W14         N/A  WCI   4          
$$

VTZ005-007-008-152300-
VERMONT
  
CITY           SKY/WX    TMP DP  RH WIND       PRES   REMARKS
ST JOHNSBURY     N/A     20  12  71 MISG      30.35F                  
MONTPELIER     FAIR      19  13  77 CALM      30.36F                  
BURLINGTON     CLOUDY    25  12  58 SE8       30.34F                  
$$

MAZ007-012-024-CTZ003-RIZ002-NYZ038-NYZ072-152300-
SOUTHERN NEW ENGLAND AND NY
  
CITY           SKY/WX    TMP DP  RH WIND       PRES   REMARKS
BOSTON         CLOUDY    33  24  69 N13       30.41F                  
WORCESTER      MOCLDY    25   9  50 E7        30.34F                  
NANTUCKET      CLOUDY    39  26  59 E12       30.37F                  
PROVIDENCE     CLOUDY    31  22  69 NE13      30.39F                  
HARTFORD       CLOUDY    30  10  43 N5        30.38F                  
ALBANY         CLOUDY    29  14  53 NE3       30.36F                  
NEW YORK CITY  HVY SNOW  30  28  92 NE20G25   30.26F VSB 1/4 WCI  17  
$$

ANZ081-ANZ082-ANZ150-NHZ014-MEZ023>029-152300-
COASTAL MARINE OBSERVATIONS
  
STATION/POSITION TIME  TEMP    WIND        PRES    WAVE
                       AIR SEA DIR/SP/G            HT/PER
                 (UTC) (F)     (DEG/KT/KT) (MB)    (FT/S)
MOUNT DESERT ROC 2200   31      CALM  /  2 1032.1F
MATINICUS ROCK   2100   30      CALM  /  1 1031.9F
ISLE OF SHOALS   2100   30      90/  5/  7 1031.7F
CASHES LEDGE BUO 2150   31 49              1032.0F   2/ 6
$$

.............KEY..............
   WCI - WIND CHILL
   TC  - TEMPERATURE IN CELSIUS
   VSB - VISIBILITY IN MILES
   HX  - HEAT INDEX
   FAIR- INDICATES FEW OR NO CLOUDS BELOW 12,000 FT, WITH NO 
         SIGNIFICANT WEATHER AND/OR OBSTRUCTIONS TO VISIBILITY.